GFSFLT1_850_thetae_057.txt.gz
Theta_e
350 349 348 347 346 347 346 347 347 347 346 345 345 345 342 339 341 342 342 338 342 345 347 349 349 352 351 349 347 343 344 347 349
349 349 349 348 346 346 346 346 346 347 346 345 345 344 342 338 337 340 338 335 340 343 345 348 351 352 352 351 350 349 344 345 349
344 348 350 349 347 346 346 345 344 346 346 346 345 344 343 336 331 332 333 334 334 340 341 345 353 354 353 351 350 349 348 343 349
343 345 350 350 348 347 346 345 344 345 346 346 346 345 343 342 333 328 329 334 333 333 338 347 351 350 353 353 351 350 349 340 345
341 344 350 350 350 347 347 346 345 344 345 345 345 343 344 344 343 337 332 333 335 334 333 337 354 354 354 355 355 352 351 342 340
335 343 349 350 351 348 348 347 346 344 344 344 343 344 344 344 343 342 340 335 333 334 333 333 336 353 354 353 354 355 353 349 337
337 336 346 349 351 350 349 348 347 346 345 344 345 344 344 343 342 342 342 338 329 330 333 335 336 340 344 348 350 349 348 347 346
338 337 345 349 350 351 350 349 348 347 347 346 346 346 346 346 344 343 342 339 336 333 334 336 337 339 341 343 346 347 347 346 346
339 342 345 347 348 350 351 350 349 349 348 348 348 348 349 349 351 352 350 349 345 341 337 337 340 339 341 343 343 342 343 343 344
337 337 336 336 338 342 350 351 351 351 350 350 350 350 351 352 352 353 354 355 355 352 348 345 343 344 344 342 340 339 339 340 342
333 333 333 333 334 337 336 350 351 350 351 351 351 352 353 354 354 354 355 356 356 356 353 351 350 348 345 343 339 337 337 338 341
343 342 341 341 340 340 339 340 347 354 353 352 352 353 354 354 354 355 356 356 357 356 356 356 355 354 352 347 343 341 338 341 345
341 344 344 343 342 340 339 338 339 342 353 351 353 353 353 354 356 356 356 356 357 357 357 356 356 355 353 351 348 348 347 348 351
340 342 345 344 341 345 347 342 337 337 350 351 347 346 342 344 350 353 355 357 358 358 358 358 358 358 357 354 351 351 351 353 356
336 337 342 347 346 348 348 349 343 336 336 340 348 352 350 348 347 348 353 357 359 360 360 360 360 360 359 357 355 354 353 356 358
326 333 333 348 354 355 353 351 350 348 336 336 339 335 335 346 350 347 349 351 358 362 362 362 361 361 360 359 359 357 356 358 362
322 324 330 330 339 348 354 355 355 348 346 341 340 339 335 352 355 352 351 351 356 359 363 363 363 363 363 363 363 361 360 360 361
320 321 326 328 327 325 342 349 355 360 353 347 345 343 339 340 351 356 354 357 357 360 363 363 363 363 364 363 362 359 358 359 360
319 319 322 330 331 326 332 348 351 357 363 360 358 356 349 356 360 359 359 359 358 359 365 365 365 366 364 363 363 365 363 362 362
318 318 318 328 333 325 331 345 349 349 349 360 362 360 362 356 363 363 362 362 362 359 361 366 366 365 363 363 364 361 361 361 361

GFSFLT1_850_thetae_060.txt.gz
Theta_e
342 347 345 345 346 347 346 347 346 346 346 346 346 345 345 342 339 341 339 335 337 341 344 345 345 347 348 349 350 347 348 344 345
343 346 346 345 345 347 347 346 346 346 346 346 346 345 345 342 339 338 339 335 337 337 341 343 346 347 348 351 350 348 346 345 341
345 347 347 346 345 346 346 346 346 346 346 346 345 345 344 344 341 339 335 335 335 337 339 344 345 346 349 352 352 351 349 348 344
346 348 348 347 346 346 346 346 346 346 346 346 345 345 344 344 343 340 338 335 333 334 337 340 344 344 351 354 353 353 350 349 348
347 348 348 348 347 345 346 346 346 346 345 346 345 343 344 344 343 342 339 335 332 331 332 337 340 342 346 350 350 352 351 350 350
345 348 348 348 347 346 346 346 346 346 345 345 345 344 343 344 344 344 341 336 333 330 330 332 335 340 348 350 351 352 352 351 350
340 347 348 348 348 346 345 346 346 346 345 345 345 344 343 342 343 342 341 337 334 331 329 331 333 334 338 351 352 352 352 350 347
338 345 347 349 348 346 346 346 346 346 346 345 344 344 344 342 339 340 339 337 335 334 333 332 331 334 335 336 348 352 351 349 348
337 346 348 349 348 347 347 347 348 347 346 346 345 345 344 344 344 342 340 339 337 334 334 334 332 331 332 334 335 339 342 344 345
338 344 348 349 349 348 348 348 348 348 347 346 346 346 346 345 345 345 345 345 343 341 339 337 336 334 333 334 334 336 338 340 342
341 340 343 345 349 349 348 347 347 348 347 347 347 347 347 347 347 347 348 349 351 352 350 349 347 345 341 339 338 338 339 340 342
348 349 345 341 340 346 349 349 349 348 347 347 347 347 347 348 348 349 349 350 351 352 353 354 354 353 352 348 346 345 346 348 348
345 350 348 346 342 340 339 340 349 352 351 350 349 349 348 349 350 350 351 352 353 353 354 354 355 355 354 354 354 353 352 352 352
335 343 351 350 344 342 344 339 338 346 356 353 352 352 351 351 351 352 353 354 354 355 355 356 356 356 356 356 355 355 355 356 356
330 335 340 346 351 349 346 342 338 337 339 344 345 353 356 354 354 355 356 356 356 357 357 358 358 358 357 357 357 357 356 357 357
322 328 332 331 334 348 349 345 339 340 343 339 340 339 338 351 353 352 352 353 354 356 358 359 359 359 359 358 359 358 359 358 359
320 321 324 328 327 330 342 350 352 350 350 347 344 338 336 337 334 338 347 353 353 352 354 357 359 360 361 361 360 360 361 360 360
319 319 319 320 324 323 323 340 350 354 358 360 354 349 346 343 340 338 347 355 354 352 352 354 356 356 359 360 360 360 361 360 360
317 317 317 318 319 321 319 321 334 343 347 349 354 361 359 357 353 348 344 351 358 355 353 352 357 361 361 362 362 361 362 362 362
317 317 317 317 318 323 321 321 319 320 323 330 336 339 345 359 358 359 357 364 361 358 356 355 357 360 359 363 362 363 363 362 362

GFSFLT1_850_thetae_063.txt.gz
Theta_e
343 344 345 346 347 349 348 349 348 347 347 343 343 346 346 344 344 343 338 340 338 335 341 343 343 344 346 347 350 350 348 347 343
341 342 344 345 346 347 348 348 349 348 349 349 346 345 345 344 344 344 340 336 337 334 337 341 343 344 345 346 349 350 349 345 344
341 340 342 345 345 346 346 347 348 348 349 348 348 347 345 344 345 344 341 335 335 335 335 338 340 343 345 346 347 350 350 349 347
341 341 341 345 345 345 346 346 347 347 348 347 347 346 345 345 345 344 343 338 334 334 333 334 340 342 343 347 348 351 352 351 349
334 340 341 344 345 344 345 346 346 346 347 347 346 345 345 345 345 345 344 342 336 334 332 333 336 340 343 344 348 353 352 352 352
339 341 342 344 345 344 345 345 346 346 346 346 346 346 345 345 345 345 344 343 341 338 334 333 333 337 340 342 342 348 352 351 351
328 338 343 345 346 346 345 345 345 346 346 346 346 346 345 345 345 344 343 343 342 339 335 335 332 332 334 337 339 343 348 348 349
331 330 343 346 346 346 345 345 345 346 346 346 346 346 345 345 343 342 342 342 341 339 337 334 332 330 330 332 333 336 340 346 346
328 335 344 346 347 347 346 345 346 346 346 346 346 346 345 345 344 343 340 340 339 338 337 335 336 333 330 330 332 332 332 335 343
334 339 345 346 347 347 346 346 345 346 347 347 346 346 346 345 344 344 342 339 339 338 337 336 336 335 336 334 331 331 332 332 334
343 340 344 345 347 347 346 346 345 346 346 346 346 346 346 346 345 344 344 344 343 341 340 340 339 338 337 336 334 332 331 332 335
342 348 344 346 347 347 346 346 345 345 345 346 346 346 346 346 346 345 345 345 345 345 346 346 348 349 347 346 344 342 341 340 341
344 352 348 346 347 348 347 346 346 346 346 346 346 347 347 346 346 346 346 347 347 348 348 350 351 352 353 353 353 353 353 352 351
332 342 352 351 346 346 346 347 348 347 347 347 347 347 346 347 346 347 347 347 348 349 350 351 352 353 354 354 354 355 355 355 355
327 331 341 350 353 353 351 350 350 350 349 349 349 349 349 349 350 349 349 349 350 351 352 353 354 355 355 356 356 356 356 357 357
319 321 328 329 344 351 353 351 348 348 347 347 345 347 351 356 357 356 355 355 354 354 355 356 356 356 357 357 357 358 358 358 358
317 317 318 324 326 338 346 352 354 353 350 345 341 339 341 342 343 349 354 356 356 357 356 355 355 354 354 355 356 357 359 360 360
317 317 317 317 321 321 326 335 346 352 354 353 347 343 342 342 342 343 344 349 355 356 357 355 354 351 351 352 354 354 357 361 362
318 317 317 317 317 319 321 321 323 334 344 348 351 353 351 349 349 350 349 348 343 346 354 356 355 355 354 352 353 357 360 361 361
318 317 317 317 317 317 317 318 321 321 321 323 327 327 325 328 341 349 353 353 352 347 349 352 358 357 356 355 355 359 355 359 361

GFSFLT1_850_thetae_069.txt.gz
Theta_e
347 350 349 349 349 348 347 346 345 344 345 346 343 343 342 341 341 342 343 343 343 343 341 336 332 335 337 340 343 347 348 349 347
343 345 349 350 349 349 348 346 345 344 344 345 345 343 343 342 342 341 342 343 343 343 343 340 333 331 337 337 341 345 346 348 349
339 342 344 348 349 349 348 348 345 343 343 343 344 343 343 343 342 342 342 343 344 343 343 342 339 331 335 339 342 344 344 345 346
339 342 343 345 349 349 348 348 348 345 342 342 343 341 341 342 342 342 342 342 344 345 344 343 340 335 333 337 340 343 345 345 346
336 340 342 344 348 350 350 349 348 347 345 342 342 343 344 344 344 343 343 343 343 344 344 344 343 337 331 333 337 342 346 346 347
331 339 342 344 345 347 349 349 348 347 348 347 344 344 345 346 347 347 346 345 344 344 344 344 344 339 334 330 331 336 341 345 347
326 329 338 341 343 345 346 347 348 347 347 348 347 346 346 346 346 346 347 346 345 344 344 344 344 342 335 332 330 331 335 342 345
339 339 335 336 341 342 342 345 346 347 347 347 347 346 346 346 346 346 347 347 345 343 344 344 344 343 340 334 332 330 329 332 335
338 340 342 340 339 341 342 342 344 344 345 346 345 345 345 345 346 346 345 346 346 345 343 343 344 344 342 340 336 330 328 328 329
336 338 339 342 345 341 339 339 341 342 343 344 345 344 345 345 345 345 344 345 345 345 344 342 342 343 343 341 338 333 330 330 330
332 335 339 340 342 344 341 341 344 343 346 343 344 344 344 345 345 344 345 345 344 344 344 342 340 340 340 339 335 333 332 332 333
325 333 338 341 343 340 336 343 343 342 344 345 344 344 344 345 344 345 345 345 344 343 343 342 340 339 339 337 335 333 333 335 337
325 331 340 344 344 343 340 343 345 342 344 344 344 344 344 345 345 346 345 345 345 343 342 341 340 338 335 333 333 334 336 338 340
323 328 337 340 347 348 347 344 344 343 343 343 344 344 344 345 345 345 345 342 343 345 345 345 344 344 344 344 344 345 346 347 349
318 327 340 341 344 346 346 345 344 344 344 344 344 345 345 345 346 346 346 346 346 346 346 346 346 346 346 346 347 349 350 351 352
316 317 327 338 344 346 345 344 345 346 344 344 344 345 345 345 345 345 346 346 346 346 346 347 347 347 347 348 349 351 352 353 353
317 316 316 318 329 341 347 348 345 344 344 344 344 344 345 345 345 345 345 346 346 347 348 348 349 353 353 351 352 351 350 350 352
318 317 316 316 314 315 321 336 347 351 349 348 346 345 346 345 345 346 347 348 349 350 349 351 352 353 354 353 352 351 351 352 350
314 316 317 316 316 315 315 315 319 331 343 350 353 354 355 356 354 347 352 353 354 355 355 355 355 355 354 354 354 354 354 353 352
315 313 316 316 316 315 315 315 315 314 317 325 337 342 348 350 352 355 355 350 348 349 350 350 351 352 352 350 352 353 356 356 355

GFSFLT1_850_thetae_072.txt.gz
Theta_e
347 349 350 351 350 350 349 349 350 349 348 339 334 339 335 331 334 345 348 347 347 348 346 345 347 349 347 339 348 351 350 349 350
344 347 348 349 350 351 350 350 349 349 348 344 339 337 340 339 336 340 347 347 348 349 349 348 348 347 344 346 343 342 353 352 351
339 341 346 348 349 350 351 351 351 350 350 347 344 344 341 342 341 339 340 343 342 347 349 347 347 342 339 341 342 338 343 351 352
337 337 340 345 348 350 351 351 351 352 351 352 351 348 346 344 342 340 340 341 341 341 343 344 343 343 339 336 345 342 342 346 350
335 336 340 342 347 351 351 352 352 352 352 351 351 351 346 345 343 342 344 341 343 342 342 344 344 343 340 337 344 347 341 343 350
333 335 337 342 344 348 351 352 352 352 352 351 350 350 351 349 346 345 343 340 340 342 342 343 344 343 343 338 333 343 342 341 344
336 335 335 340 344 346 351 352 352 352 352 351 350 349 350 349 340 340 339 340 341 342 343 343 343 343 341 338 333 332 338 346 339
338 340 340 339 344 345 348 352 353 353 352 352 351 350 350 348 341 342 343 344 344 344 344 343 343 343 342 340 336 338 330 332 337
339 340 342 343 343 340 344 348 353 355 353 352 352 351 350 349 343 343 344 345 346 346 346 344 344 343 342 342 340 342 330 330 335
338 340 341 343 344 346 343 344 349 352 353 352 352 352 350 349 345 344 344 345 345 346 346 344 343 343 343 341 339 335 331 329 331
333 335 338 342 344 344 346 345 345 351 352 354 353 353 351 347 346 345 345 346 346 345 346 345 344 342 341 342 340 335 332 332 335
329 330 332 339 343 345 347 348 345 347 351 354 354 352 348 346 345 345 347 346 346 345 345 345 345 344 342 340 337 335 333 336 338
325 327 330 339 344 348 352 352 347 347 351 352 353 351 345 344 345 344 345 345 345 345 345 344 343 341 339 337 335 335 334 335 338
320 321 327 337 345 350 355 349 346 346 351 351 352 355 354 352 349 346 345 345 344 344 344 345 343 348 341 337 335 334 333 333 336
320 320 323 327 341 347 354 350 345 350 351 353 354 354 354 354 348 348 352 346 346 346 346 345 348 345 349 351 339 339 341 341 342
317 320 319 322 333 344 349 353 351 353 353 354 354 355 355 355 354 352 352 347 348 348 347 355 354 357 357 357 357 351 346 346 347
317 317 318 320 322 329 337 347 352 354 355 355 355 356 357 357 356 354 352 355 355 357 357 357 356 357 357 358 358 359 360 352 350
315 316 317 318 317 320 323 328 338 347 355 354 354 355 356 356 356 353 357 357 357 357 357 357 358 357 358 359 360 361 361 362 363
315 316 319 317 319 317 319 323 326 332 346 355 357 356 354 354 354 355 355 356 356 355 357 356 356 358 359 360 361 361 360 355 355
315 319 320 319 321 318 317 317 318 321 328 338 347 354 357 358 357 356 355 357 359 359 358 354 356 354 355 355 362 359 359 355 356

GFSFLT1_850_thetae_075.txt.gz
Theta_e
349 350 350 350 350 350 351 351 351 349 349 348 341 330 328 329 333 344 344 350 348 346 346 345 347 348 352 352 354 352 353 352 352
349 350 351 351 351 351 351 351 352 351 350 349 347 337 329 328 329 333 345 348 346 351 348 347 348 349 353 352 351 353 352 352 351
345 349 349 350 351 351 351 351 351 352 351 352 348 345 335 331 329 329 340 348 349 350 349 349 351 350 350 351 351 352 352 351 352
341 343 346 347 348 351 352 352 352 352 353 353 353 351 345 341 337 334 331 346 348 348 352 352 350 352 352 349 350 352 352 349 350
338 339 342 344 347 349 351 352 352 352 353 353 355 354 350 345 342 340 342 337 344 348 348 350 350 347 351 350 348 350 352 354 349
336 337 338 339 343 348 350 352 353 353 353 353 353 354 354 352 349 347 344 344 339 342 344 342 341 345 348 349 349 348 352 353 354
340 339 337 340 343 346 350 352 354 354 353 353 354 354 354 354 354 352 348 346 341 340 341 338 340 342 344 346 347 345 347 351 351
339 339 341 339 342 344 347 352 354 355 354 354 354 353 353 353 355 353 353 348 346 343 341 340 339 341 343 343 348 349 343 341 348
340 340 342 344 344 345 347 350 353 356 355 355 354 354 353 352 354 355 352 349 348 346 341 339 340 341 342 342 349 348 346 344 338
338 339 341 344 346 347 347 346 350 355 357 356 355 355 354 352 354 355 351 345 343 341 340 341 342 342 343 342 339 344 345 344 341
334 336 337 338 342 346 347 346 345 348 354 357 356 355 357 354 354 355 350 349 345 343 343 343 344 344 343 342 341 339 337 339 340
330 331 333 335 338 343 347 349 349 348 350 355 357 357 356 357 355 356 355 347 345 346 345 345 346 346 345 342 339 340 335 337 339
327 329 331 333 336 344 348 350 352 351 349 352 358 357 358 359 357 358 358 352 346 344 345 345 348 349 346 343 340 339 339 337 338
325 327 327 331 334 343 350 354 358 356 350 351 354 358 359 359 359 359 359 359 356 350 346 355 350 356 355 351 347 342 339 338 338
324 324 324 329 331 340 347 357 361 355 352 351 354 357 359 359 360 359 360 358 358 358 355 353 356 352 356 357 347 341 339 337 335
322 321 322 325 327 332 342 350 358 351 351 355 354 357 358 359 359 359 358 359 359 360 359 358 359 360 358 355 354 353 339 334 332
321 319 320 322 325 328 330 342 352 355 358 357 357 358 358 358 358 358 357 361 361 360 360 360 358 358 357 356 353 353 359 359 352
319 318 319 322 324 325 327 331 343 353 356 357 357 357 358 359 359 359 359 359 359 360 358 358 358 354 356 357 358 359 359 360 362
317 318 320 321 324 318 320 320 332 345 353 354 355 356 357 359 359 360 360 358 359 359 359 357 357 358 358 359 359 359 360 360 361
315 317 320 321 323 316 316 316 315 331 343 347 354 356 358 359 360 360 360 360 360 359 359 358 358 358 358 358 361 360 360 361 361